Погода в Гяндже

Погода в Гяндже : погода сейчас, прогноз погоды и архив. Всё, что Вы хотите узнать о погоде в Гяндже!

Поиск расширенной информации на нашем сайте:

Другие новости

Новости СМИ2

Главная страница сайта

Новости сайта

03.07.2017

Напоминаем, что на нашем специализированном сайте Метеоцентр.Азия вы можете получить высокодетализированные автоматические прогнозы погоды по пунктам России, СНГ и мира в авиационном формате (включающие направление и скорость ветра, видимость, явления погоды, количество и форму облачности, нижнюю и верхнюю границу облачности).

Рекомендуем: Высказывания Мастеров восточных единоборств.

Погода в Гяндже - сегодня

Время (UTC), дата Ветер
(°,м/с) 
Видим.   Явления Облачность Т
(°С)
Тd
(°С)
f(%) Тe
(°С)
Pmin
(гПа)
dP
(гПа)
Po
(мм)
O2
(г/м3)
Тmin Tmax R s Состояние
почвы
12 13.08.18 290 (З) 20000 м    4/4 1000 м 
[Cu med, cong]
+30 +14.6 39 +39  1008.6  -1.8  731  262           
15 13.08.18 110 (В) 20000 м    4/4 1000 м 
[Cu med, cong]
+27.6 +14.5 45 +36  1008.5  -0.1  730  264           
21 13.08.18 тихо ()   10 км    6/6 1000 м 
[Sc]
+23 +15.3 62 +33  1011.3  0.6  732  269           
00 14.08.18 тихо ()   10 км    6/6 1000 м 
[Sc]
+22 +16 69 +33  1011.5  0.2  732  270           
03 14.08.18 тихо ()   10 км    10/10 1000 м 
[Sc]
+21.1 +16.2 74 +33  1012.9  1.4  733  271           
06 14.08.18 тихо ()   10 км    10/10 1000 м 
[Sc]
+23.2 +17.7 71 +38  1013.5  0.6  734  268  +21.1         
09 14.08.18 070 (В) 10 км    10/10 1000 м 
[Sc]
+25 +16.6 60 +37  1012.3  -1.2  733  267           
12 14.08.18 090 (В) 15  20000 м    5/5 1000 м 
[Cu hum]
+29 +12.9 37 +35  1010.7  -1.6  732  264           
15 14.08.18 090 (В) 20000 м    5/0 средняя 
[Ac cuf]
+26.9 +12.9 42 +33  1010.6  -0.1  732  266           
18 14.08.18 090 (В) 10 км    8/0 средняя 
[Ac cast]
+25.5 +13.4 47 +32  1012.4  1.8  733  267    +29.2       
21 14.08.18 тихо ()   10 км  в посл. час дождь  10/10 600 м 
[Frnb]
+22.4 +17 72 +35  1013  0.6  733  269           
00 15.08.18 тихо ()   10 км    5/5 1000 м 
[Cu med, cong]
+20.9 +16.3 75 +33  1013.3  0.3  733  271           
03 15.08.18 290 (З) 10 км    10/10 1000 м 
[Sc]
+20.9 +16.8 77 +34  1013.8  0.5  734  271           
09 15.08.18 140 (ЮВ) 10 км    8/0 средняя 
[Ac As]
+25.5 +15.9 55 +36  1013.8  -0.8  734  267           
12 15.08.18 140 (ЮВ) 10 км    6/6 1000 м 
[Cu Sc]
+27.5 +13.7 43 +35  1012.7  -1.1  733  266           
15 15.08.18 090 (В) 10 км    4/0 средняя, верхняя 
[As trans|Cc]
+26.9 +14 45 +34  1013.1  0.4  734  266           
21 15.08.18 250 (З) 10 км    ясно 
+21 +15.9 73 +32  1015.3  0.3  735  271           
00 16.08.18 250 (З) 10 км    ясно 
+19.2 +16.4 84 +33  1015.2  -0.1  734  273           
03 16.08.18 200 (Ю) 20000 м    4/0 средняя 
[Ac cuf]
+18.3 +14.1 76 +28  1016.1  0.9  735  275           
06 16.08.18 тихо ()   20000 м    ясно 
+23.9 +16 61 +35  1015.2  -0.9  735  269  +19         
09 16.08.18 140 (ЮВ) 20000 м    3/3 1000 м 
[Cu med, cong]
+28.4 +15.9 47 +39  1013.5  -1.7  734  265           
12 16.08.18 090 (В) 20000 м    3/3 1000 м 
[Cu med, cong]
+30.3 +15.1 40 +40  1011.3  -2.2  733  263           
15 16.08.18 050 (СВ) 20000 м    4/0 средняя 
[Ac cuf]
+29.6 +14.9 41 +39  1010.9  -0.4  732  263           
18 16.08.18 140 (ЮВ) 10 км    ясно 
+26.3 +16 53 +37  1011.8  0.9  733  266    +30.8       
21 16.08.18 320 (СЗ) 10 км    3/0 верхняя 
[Ci]
+22.7 +15.8 65 +33  1012.3  0.5  733  269           
Время (UTC), дата Ветер
(°,м/с) 
Видим.   Явления Облачность Т
(°С)
Тd
(°С)
f(%) Тe
(°С)
Pmin
(гПа)
dP
(гПа)
Po
(мм)
O2
(г/м3)
Тmin Tmax R s Состояние
почвы

Для получения пояснительной информации подведите курсор к названию столбца.

ПОГОДА в Гяндже - архив

Всё, что Вы хотите узнать о погоде в Гяндже - удобно и подробно!

Выберите нужную дату (начиная с 1 января 2015* года) и нажмите кнопку "Найти".
Будут отображены архивные сводки погоды по пункту Гянджа, начиная с указанной даты.


Отображать данные в формате CSV (для использования в таблицах Excel)


Внимание! Наш архив погоды предназначен исключительно для личного некоммерческого использования в познавательных целях. Если Вам необходимы официальные справки о состоянии погоды (для производственных, юридических, коммерческих и т.п. целей), обращайтесь в органы Росгидромета.

*Примечание: данная дата относится к архиву по метеостанциям СССР (Россия, СНГ, Балтия).
Архив по метеостанциям Зарубежной Европы и Азии (кроме Китая) хранится 10 дней, по другим регионам земного шара (Китай, Африка, Америка, Австралия, Океания) - 1 день.

Гянджа - район местоположения метеостанции


Название, широта, долгота, высота метеостанции:
Гянджа (город) 40.7°ш. 46.4°д. 311 м над ур. моря [Азербайджан]

Дополнительная информация

В oтличие oт бoльшинства пoгoдных сайтoв мы публикуем пoдрoбную метеoинфoрмацию в детальнoм прoфессиoнальнoм фoрмате.

Характеристики температуры и влажнoсти вoздуха измеряются на высoте 2 м в тени вдали oт зданий и деревьев.
Скoрoсть ветра измеряется на высoте 10 м (на урoвне рoста челoвека скoрoсть ветра ниже в 1.5-2 раза). Если метеoстанция нахoдится в гoрoде или в лесу, тo скoрoсть ветра занижена на 2-4 м/с пo сравнению с oткрытым местoм. Скoрoсть ветра над акватoриями крупных рек и oзёр, а также на вершинах хoлмoв на 2-5 м/с выше, чем в oбычных услoвиях.
Атмoсфернoе давление в разных тoчках местнoсти мoжет значительнo oтличаться oт давления на метеoстанции, в зависимoсти oт услoвий рельефа (при пoдъёме на 10 м давление пoнижается примернo на 1 мм рт.ст.).